Regional Weather Roundup
Issued by NWS

Home | Current Version | Previous Version | Text Only | Print | Product List | Glossary Off
Versions: 1 2 3 4 5 6 7 8 9 10 11 12 13 14 15 16 17 18 19 20 21 22 23 24 25 26 27 28 29 30 31 32 33 34 35 36 37 38 39 40 41 42 43 44 45 46 47 48 49 50

000
ASUS43 KOAX 220810
RWRNE

WEATHER ROUNDUP FOR NEBRASKA
NATIONAL WEATHER SERVICE OMAHA NE
300 AM CDT THU JUN 22 2017

NOTES: SATELLITE DATA IS BEING USED TO AUGMENT CLOUD COVER ABOVE
       12000 FEET.
       "FAIR" INDICATES FEW OR NO CLOUDS BELOW 12,000 FEET WITH NO
       SIGNIFICANT WEATHER AND/OR OBSTRUCTIONS TO VISIBILITY.

  * THESE STATIONS DO NOT REPORT WEATHER SUCH AS RAIN...SNOW OR FOG.

NEZ001>004-019>022-054>056-220900-
NEBRASKA PANHANDLE

CITY           SKY/WX    TMP DP  RH WIND       PRES   REMARKS
SCOTTSBLUFF    CLEAR     66  51  58 E6        29.73F
ALLIANCE       CLOUDY    64  50  60 S6        29.72F
CHADRON        PTCLDY    61  55  81 CALM      29.72S
GORDON         FAIR      66  58  76 E3        29.73S
KIMBALL        CLOUDY    66  44  45 SW8       29.85F
SIDNEY         PTCLDY    66  47  50 S10       29.81F
$$

NEZ057>060-069>072-079>082-220900-
SOUTHWEST NEBRASKA

CITY           SKY/WX    TMP DP  RH WIND       PRES   REMARKS
NORTH PLATTE   CLOUDY    78  61  55 S17G29    29.70F
IMPERIAL       CLEAR     73  51  46 SW14      29.76F
LEXINGTON      CLEAR     76  59  55 S18G28    29.74F
MCCOOK         CLEAR     73  57  57 SE10      29.77S
OGALLALA       PTCLDY    73  57  56 SW7       29.73F
$$

NEZ005>010-023>029-035>040-094-220900-
NORTH CENTRAL NEBRASKA

CITY           SKY/WX    TMP DP  RH WIND       PRES   REMARKS
VALENTINE      CLEAR     73  61  65 SE5       29.69F
AINSWORTH      CLEAR     70  66  88 SE6       29.69F
BROKEN BOW     CLEAR     76  63  64 S10       29.71F
O`NEILL        CLEAR     73  68  82 CALM      29.67S
ORD            CLEAR     74  62  66 SW10      29.67F
THEDFORD       CLOUDY    76  63  63 S15       29.71F
$$

NEZ041-046>049-061>064-073>077-083>087-220900-
SOUTH CENTRAL NEBRASKA

CITY           SKY/WX    TMP DP  RH WIND       PRES   REMARKS
GRAND ISLAND   PTCLDY    75  57  53 W10       29.66F
AURORA         CLOUDY    70  59  68 NW5       29.67R
HASTINGS       PTCLDY    74  55  51 SW7       29.69S
HEBRON         CLOUDY    81  57  43 S23G31    29.67F
HOLDREGE       CLEAR     71  59  64 SW13G21   29.75R
KEARNEY *      CLEAR     79  52  38 SW21G26   29.71R
YORK           CLOUDY    75  55  50 SE6       29.66F
$$

NEZ011>018-030>034-042>045-220900-
NORTHEAST NEBRASKA

CITY           SKY/WX    TMP DP  RH WIND       PRES   REMARKS
NORFOLK        CLEAR     76  58  53 SE7       29.65F
ALBION         CLEAR     76  61  59 SE3       29.67S
BLAIR          MOCLDY    79  62  55 S17       29.69F
FREMONT        CLOUDY    80  60  50 S8        29.69F
TEKAMAH        PTCLDY    79  60  52 S15       29.66F
WAYNE          CLOUDY    78  59  51 S5        29.65F
$$

NEZ050>053-065>068-078-088>093-220900-
SOUTHEAST NEBRASKA

CITY           SKY/WX    TMP DP  RH WIND       PRES   REMARKS
LINCOLN        MOCLDY    80  60  50 S17       29.69F
OMAHA EPPLEY   MOCLDY    81  61  50 S16       29.70F
BEATRICE       PTCLDY    78  60  54 S15G23    29.71S
FALLS CITY     CLOUDY    75  62  64 S10       29.77F
NEBRASKA CITY  CLOUDY    77  61  57 S17       29.74F
PLATTSMOUTH    CLOUDY    78  60  54 S17G24    29.72F
$$

NEZ044-045-051>053-067-220900-
OMAHA AREA

CITY           SKY/WX    TMP DP  RH WIND       PRES   REMARKS
OMAHA EPPLEY   MOCLDY    81  61  50 S16       29.70F
BLAIR          MOCLDY    79  62  55 S17       29.69F
FREMONT        CLOUDY    80  60  50 S8        29.69F
MILLARD        PTCLDY    81  64  57 SE7       29.70S
OFFUTT AFB     CLOUDY    78  62  56 S12       29.70F
PLATTSMOUTH    CLOUDY    78  60  54 S17G24    29.72F
WAHOO          FAIR      80  58  48 S17       29.68S
$$




USA.gov is the U.S. government's official web portal to all federal, state and local government web resources and services.